Skip Page Navigation
NASA JPL Caltech
NASA Logo - Jet Propulsion Laboratory + View the NASA Portal
+ Center for Near-Earth Object Studies
JPL Home Earth Solar System Stars & Galaxies Technology
JPL Solar System Dynamics
BODIES ORBITS EPHEMERIDES TOOLS PHYSICAL DATA DISCOVERY FAQ SITE MAP
JPL Small-Body Database Browser
Search: [ help ]  
437609 (2014 BA13)
Classification: Main-belt Asteroid          SPK-ID: 2437609
Ephemeris | Orbit Diagram | Orbital Elements | Mission Design | Physical Parameters | Discovery Circumstances ]

[ show orbit diagram ]
Orbital Elements at Epoch 2459000.5 (2020-May-31.0) TDB
Reference: JPL 11 (heliocentric ecliptic J2000)
 Element Value Uncertainty (1-sigma)   Units 
e .142306601888152 6.8226e-08  
a 2.551883924985554 2.6609e-08 au
q 2.18873399520786 1.7591e-07 au
i .5360881875643121 7.3534e-06 deg
node 90.10142251765528 0.00091978 deg
peri 298.748330883773 0.00092054 deg
M 286.0361170466412 4.3771e-05 deg
tp 2459306.419388880174
(2021-Apr-01.91938888)
0.00018434 TDB
period 1488.983211796907
4.08
2.3289e-05
6.376e-08
d
yr
n .2417757279919573 3.7816e-09 deg/d
Q 2.915033854763248 3.0396e-08 au
  Orbit Determination Parameters
   # obs. used (total)      127  
   data-arc span      8235 days (22.55 yr)  
   first obs. used      1996-11-08  
   last obs. used      2019-05-27  
   planetary ephem.      DE431  
   SB-pert. ephem.      SB431-N16  
   condition code      0  
   norm. resid. RMS      .67003  
   source      ORB  
   producer      Otto Matic  
   solution date      2019-Sep-24 07:37:45  

Additional Information
 Earth MOID = 1.19371 au 
 Jupiter MOID = 2.52188 au 
 T_jup = 3.425 
[ show covariance matrix ]

Ephemeris | Orbit Diagram | Orbital Elements | Mission Design | Physical Parameters | Discovery Circumstances ]

Physical Parameter Table
Parameter Symbol Value Units Sigma Reference Notes
absolute magnitude H 17.3   n/a MPO434611  

437609 (2014 BA13)          Discovered 2004-Sep-15 by Spacewatch at Kitt Peak
Reference: Last Updated: 2015-06-04

Alternate Designations
 2014 BA13 = 2004 RD335 
Ephemeris | Orbit Diagram | Orbital Elements | Mission Design | Physical Parameters | Discovery Circumstances ]
ABOUT SSD CREDITS/AWARDS PRIVACY/COPYRIGHT GLOSSARY LINKS
FirstGov 2020-Aug-12 06:59 UT
(server date/time)  
NASA Home Page
Site Manager:   Ryan S. Park
Webmaster  Alan B. Chamberlin